Location: Andrea Ville Subdivision
(14.3485°N, 120.9580°E)
Time: 02:12:33
(UTC+00:00)

Cosmos 1992 Rocket - Pass Details

Date: 13 January 2026
Orbit: 754 x 761 km, 74.0° (Epoch: 16 February)

Event Time Altitude Azimuth Distance (km) Brightness Sun altitude
Rises 10:19:52 0° 179° (S) 3,196 7.5 -8.6°
Reaches altitude 10° 10:22:19 10° 172° (S) 2,272 6.6 -9.2°
Maximum altitude 10:27:11 43° 101° (E) 1,044 4.3 -10.3°
Drops below altitude 10° 10:32:03 10° 30° (NNE) 2,272 6.0 -11.4°
Enters shadow 10:32:56 - 28° (NNE) 2,602 6.3 -11.6°
